FW5872 Weather Reports


time (UTC)temp
F
wind
direction
speed
knots
gust
knots
rain 1hr
in
rain 24hr
in
rain mn
in
humidity
%
barometer
mb
20260906124536 67 0 0.0 0.0 0.00 0.00 0.00 85 1016.1
20260906123036 66 0 0.0 0.9 0.00 0.00 0.00 86 1015.9
20260906121539 64 0 0.0 0.0 0.00 0.00 0.00 88 1015.8
20260906120034 63 0 0.0 0.0 0.00 0.00 0.00 90 1015.6
20260906114544 62 0 0.0 0.0 0.00 0.00 0.00 91 1015.3
20260906113036 62 0 0.0 0.0 0.00 0.00 0.00 91 1015.3
20260906111542 62 0 0.0 0.0 0.00 0.00 0.00 91 1015.2
20260906110036 62 0 0.0 0.0 0.00 0.00 0.00 91 1015.1
20260906104536 62 0 0.0 0.0 0.00 0.00 0.00 90 1014.8
20260906103038 62 0 0.0 0.0 0.00 0.00 0.00 90 1014.4
20260906101537 62 0 0.0 0.0 0.00 0.00 0.00 90 1014.3
20260906100037 62 0 0.0 0.0 0.00 0.00 0.00 90 1014.1
20260906094540 62 0 0.0 0.0 0.00 0.00 0.00 90 1013.9
20260906093037 62 0 0.0 0.0 0.00 0.00 0.00 90 1014.0
20260906091535 62 0 0.0 0.0 0.00 0.00 0.00 90 1013.8
20260906090045 62 0 0.0 0.0 0.00 0.00 0.00 90 1013.7
20260906084536 62 0 0.0 0.0 0.00 0.00 0.00 91 1013.6
20260906083037 62 0 0.0 0.0 0.00 0.00 0.00 90 1013.5
20260906081536 62 0 0.0 0.0 0.00 0.00 0.00 90 1013.6
20260906080041 63 0 0.0 0.0 0.00 0.00 0.00 89 1013.4
20260906074535 63 0 0.0 0.0 0.00 0.00 0.00 88 1013.4
20260906073036 64 0 0.0 0.0 0.00 0.00 0.00 86 1013.3
20260906071532 64 0 0.0 0.0 0.00 0.00 0.00 86 1013.4
20260906070035 64 0 0.0 0.0 0.00 0.00 0.00 86 1013.3
20260906064534 64 0 0.0 0.0 0.00 0.00 0.00 87 1013.3
20260906063035 64 0 0.0 0.0 0.00 0.00 0.00 87 1013.3
20260906061545 65 0 0.0 0.0 0.00 0.00 0.00 88 1013.4
20260906060039 65 0 0.0 0.0 0.00 0.00 0.00 88 1013.4
20260906054541 65 0 0.0 0.0 0.00 0.00 0.00 88 1013.3
20260906053036 66 0 0.0 0.0 0.00 0.00 0.00 86 1013.2
20260906051537 66 0 0.0 0.0 0.00 0.00 0.00 87 1013.3
20260906050039 67 0 0.0 0.0 0.00 0.00 0.00 86 1013.5
20260906044535 67 0 0.0 0.0 0.00 0.00 0.00 87 1013.6
20260906043034 67 0 0.0 0.0 0.00 0.00 0.00 88 1013.8
20260906041536 68 0 0.0 0.0 0.00 0.00 0.00 88 1013.8
20260906040037 69 0 0.0 0.0 0.00 0.00 0.00 88 1013.6
20260906034551 69 0 0.0 0.0 0.00 0.00 0.00 88 1013.7
20260906033040 69 0 0.0 0.0 0.00 0.00 0.00 88 1013.8
20260906031535 69 0 0.0 0.0 0.00 0.00 0.00 86 1013.8
20260906030036 70 0 0.0 0.0 0.00 0.00 0.00 85 1013.5
20260906024539 70 0 0.0 0.0 0.00 0.00 0.00 83 1013.6
20260906023036 71 0 0.0 0.0 0.00 0.00 0.00 82 1013.5
20260906021541 71 0 0.0 0.0 0.00 0.00 0.00 82 1013.4
20260906020036 72 0 0.0 0.0 0.00 0.00 0.00 81 1013.4
20260906014538 72 0 0.0 0.0 0.00 0.00 0.00 82 1013.3
20260906013037 72 0 0.0 0.0 0.00 0.00 0.00 83 1013.1
20260906011535 72 0 0.0 0.0 0.00 0.00 0.00 84 1013.0
20260906010037 72 0 0.0 0.0 0.00 0.00 0.00 84 1012.8
20260906004533 72 0 0.0 0.0 0.00 0.00 0.00 83 1012.7
20260906003033 73 0 0.0 0.0 0.00 0.00 0.00 81 1012.5
20260906001551 74 0 0.0 0.0 0.00 0.00 0.00 79 1012.5
20260906000036 75 0 0.0 0.0 0.00 0.00 0.00 79 1012.4
20260905234533 75 0 0.0 0.0 0.00 0.00 0.00 76 1012.4
20260905233035 76 0 0.0 0.0 0.00 0.00 0.00 76 1012.1
20260905231535 76 0 0.0 0.0 0.00 0.00 0.00 75 1011.9
20260905230039 77 0 0.0 0.0 0.00 0.00 0.00 74 1011.8
20260905224534 78 0 0.0 0.0 0.00 0.00 0.00 74 1011.7
20260905223047 78 0 0.0 0.0 0.00 0.00 0.00 75 1011.8
20260905221537 79 0 0.0 0.0 0.00 0.00 0.00 72 1011.7
20260905220034 80 0 0.0 0.9 0.00 0.00 0.00 71 1011.6
20260905214543 79 0 0.0 3.5 0.00 0.00 0.00 72 1011.6
20260905213034 79 0 0.0 0.0 0.00 0.00 0.00 73 1011.3
20260905211532 79 0 0.0 0.0 0.00 0.00 0.00 74 1011.2
20260905210045 79 0 0.0 0.0 0.00 0.00 0.00 75 1011.0
20260905204536 79 0 0.0 0.0 0.00 0.00 0.00 74 1011.1
20260905203037 79 0 0.0 0.0 0.00 0.00 0.00 72 1011.3
20260905201536 80 0 0.0 0.0 0.00 0.00 0.00 72 1011.4
20260905200104 81 0 0.0 2.6 0.00 0.00 0.00 71 1011.4
20260905194535 81 42 0.0 2.6 0.00 0.00 0.00 70 1011.6
20260905193040 81 0 0.0 1.7 0.00 0.00 0.00 72 1011.6
20260905191535 82 0 0.0 0.9 0.00 0.00 0.00 76 1011.6
20260905190038 81 0 0.0 1.7 0.00 0.00 0.00 73 1011.6
20260905184548 81 67 0.0 2.6 0.00 0.06 0.00 72 1011.8
20260905183041 80 0 0.0 0.0 0.00 0.06 0.00 76 1012.0
20260905181539 80 0 0.0 0.0 0.00 0.06 0.00 73 1012.2
20260905180041 79 0 0.0 0.0 0.00 0.06 0.00 80 1012.3
20260905174534 78 0 0.0 0.0 0.00 0.06 0.00 77 1012.6
20260905173044 78 0 0.0 0.0 0.00 0.06 0.00 77 1012.7
20260905171537 79 0 0.0 0.0 0.00 0.06 0.00 76 1012.7
20260905170036 79 0 0.0 0.0 0.00 0.06 0.00 79 1012.9
20260905164534 79 0 0.0 0.0 0.00 0.06 0.00 78 1012.8
20260905163034 79 255 0.0 0.9 0.00 0.06 0.00 76 1012.9
20260905161538 79 0 0.0 0.0 0.00 0.06 0.00 76 1013.2
20260905160033 79 0 0.0 1.7 0.00 0.06 0.00 78 1013.2
20260905154534 79 0 0.0 0.9 0.00 0.06 0.00 81 1013.3
20260905153038 77 0 0.0 0.0 0.00 0.06 0.00 80 1013.4
20260905151535 78 0 0.0 0.0 0.00 0.06 0.00 79 1013.8
20260905150035 78 0 0.0 0.9 0.00 0.06 0.00 78 1013.7
20260905144543 78 0 0.0 0.9 0.00 0.06 0.00 79 1013.5
20260905143036 78 271 0.0 0.9 0.00 0.06 0.00 79 1013.4
20260905141537 78 0 0.0 0.9 0.00 0.06 0.00 81 1013.2
20260905140035 78 0 0.0 0.0 0.00 0.06 0.00 82 1012.8
20260905134539 78 0 0.0 0.0 0.00 0.06 0.00 83 1012.9
20260905133035 76 0 0.0 0.0 0.00 0.06 0.00 85 1012.9
20260905131550 75 0 0.0 0.0 0.00 0.06 0.00 86 1013.1
20260905130035 74 0 0.0 0.0 0.00 0.06 0.00 89 1012.9